Hourly Data Report for October 01, 2017

All times are specified in Local Standard Time (LST). Add 1 hour to adjust for Daylight Saving Time where and when it is observed.

ESKASONI FIRST NATION AUTOMATIC WEATHER STATION
NOVA SCOTIA

45°55'14.000" N
60°38'49.000" W
28.00 m
8201780
71175
AEI

Download Data

Hourly Data (October 2017)
Hourly Data Report for October 1, 2017
Temp Definition
°C
Dew Point Temp Definition
°C
Rel Hum Definition
%
Wind Dir Definition
10's deg

Wind Spd Definition
km/h
Visibility Definition
km
Stn Press Definition
kPa
Hmdx Definition


Wind Chill Definition


Weather Definition


TIME
00:00 3.8 3.1 95 33 7   102.00     LegendNANA
01:00 3.5 2.9 96 33 9   102.01     LegendNANA
02:00 3.8 3.3 96 34 8   101.98     LegendNANA
03:00 4.4 3.5 94 30 7   101.97     LegendNANA
04:00 4.2 3.4 95 35 7   101.94     LegendNANA
05:00 5.3 4.1 92 29 8   101.91     LegendNANA
06:00 6.8 5.5 91 27 7   101.90     LegendNANA
07:00 8.2 5.1 80 27 8   101.88     LegendNANA
08:00 10.0 6.4 78 25 14   101.89     LegendNANA
09:00 11.9 5.8 66 25 17   101.87     LegendNANA
10:00 13.1 5.7 61 23 22   101.83     LegendNANA
11:00 13.6 5.5 58 22 25   101.76     LegendNANA
12:00 14.1 4.5 52 23 25   101.68     LegendNANA
13:00 14.8 4.6 50 22 30   101.60     LegendNANA
14:00 15.3 4.4 48 22 26   101.51     LegendNANA
15:00 15.6 4.0 46 23 21   101.43     LegendNANA
16:00 15.5 3.2 44 24 19   101.38     LegendNANA
17:00 14.7 4.2 49 25 11   101.40     LegendNANA
18:00 13.4 4.0 53 27 11   101.41     LegendNANA
19:00 13.0 5.4 60 27 11   101.46     LegendNANA
20:00 12.2 5.8 65 27 7   101.53     LegendNANA
21:00 11.3 5.7 69 29 9   101.52     LegendNANA
22:00 11.7 5.1 64 30 11   101.48     LegendNANA
23:00 11.3 5.4 67 26 6   101.43     LegendNANA

Notes on Data Quality.

Legend

  • E = Estimated
  • M = Missing
  • NA = Not Available
  • ‡ = Partner data that is not subject to review by the National Climate Archives
Date modified: